Vorticity
8 7 7 6 6 6 6 6 7 7 7 7 7 6 6 6 6 6 6 6 6 6 6 7 8 8 9 9 8 6 5 4 3 1 1 0 0 0 -0 0 2 5 8 10 13 15 15 12 8 7 7 9 10 11 13 13 13 12 12 11 11 10 10 9 9 8 8 8 8
8 8 7 7 6 6 6 6 7 7 7 7 7 6 6 6 6 6 6 6 6 6 6 7 8 9 9 8 7 5 4 3 1 1 0 0 -0 -0 -0 1 4 7 11 13 14 14 13 9 7 7 8 10 11 12 13 14 13 12 11 11 11 10 10 9 9 8 8 8 8
8 8 8 7 7 7 7 7 7 6 6 6 6 6 6 6 6 6 6 6 6 7 7 8 9 9 8 7 6 4 3 2 1 0 0 0 -0 -0 0 2 6 10 13 15 14 12 10 7 7 8 9 10 12 13 13 13 13 12 11 11 10 10 9 9 8 8 8 8 8
9 9 8 8 8 7 7 7 6 6 6 6 6 6 7 7 6 6 6 6 7 7 8 8 9 8 8 6 5 3 2 1 0 0 0 -0 -1 -0 1 4 9 13 15 15 13 10 8 7 8 9 10 11 12 13 13 13 12 12 12 11 10 9 9 8 8 8 8 8 8
9 9 9 9 8 8 7 7 7 7 7 7 7 7 7 7 7 7 7 7 8 8 8 9 9 8 7 5 3 2 1 0 0 0 -0 -1 -1 1 3 8 12 14 15 14 11 9 7 8 9 10 11 12 13 14 13 13 12 12 11 10 9 9 8 8 8 8 8 8 8
10 10 10 9 9 8 8 8 8 8 8 8 8 8 8 8 7 8 8 8 8 9 9 10 8 7 5 4 2 1 1 0 0 0 -0 -1 -0 2 6 12 14 15 14 12 9 8 8 9 9 10 11 12 13 14 13 13 12 11 10 9 9 8 7 8 7 7 8 8 8
10 10 10 10 9 9 9 9 9 9 9 9 9 8 8 8 8 8 9 8 9 9 10 9 7 5 4 2 2 1 1 0 -0 -1 -1 -0 2 6 10 14 15 14 12 10 8 8 8 9 10 10 11 13 13 14 13 13 12 10 9 8 8 7 7 7 7 8 8 8 8
10 10 10 10 10 10 10 10 10 10 10 10 9 9 9 8 9 9 9 9 10 9 9 7 6 4 3 2 1 1 0 -0 -1 -1 -0 1 5 9 13 15 14 13 11 9 8 8 9 9 10 11 12 13 13 13 13 12 11 10 8 7 7 7 7 7 8 8 8 8 7
11 11 11 11 11 11 11 11 11 10 10 10 10 9 9 9 9 9 9 10 9 8 7 6 4 3 2 2 1 1 0 -1 -1 -0 1 4 8 12 15 15 13 11 10 8 8 8 9 9 10 12 12 13 13 13 12 11 10 9 8 7 6 7 8 8 9 9 8 8 7
11 11 11 12 12 12 11 11 11 11 11 10 10 10 10 10 9 9 9 8 7 7 6 4 3 2 2 1 1 0 -0 -1 -0 1 4 8 12 14 14 13 12 10 9 8 8 8 9 10 11 12 13 14 13 13 11 10 9 8 7 7 7 7 8 9 9 8 8 7 7
11 11 11 11 11 11 11 11 11 11 11 11 10 10 10 9 9 9 8 7 6 5 4 3 2 2 1 1 0 -1 -1 -0 2 4 7 11 14 15 14 12 11 10 8 8 8 9 9 10 12 13 13 14 13 12 10 9 8 7 7 7 7 8 8 9 9 8 8 7 6
10 10 10 11 11 11 11 11 11 11 11 11 10 10 9 9 8 7 7 6 5 4 3 2 2 1 1 -0 -1 -1 -0 2 4 7 10 14 15 14 13 12 10 9 8 8 8 9 10 11 12 13 13 13 12 10 9 7 7 7 7 7 8 9 9 9 8 8 7 6 6
9 9 10 10 10 11 11 11 11 11 10 10 9 9 8 7 7 6 6 5 4 3 2 2 1 1 -0 -1 -1 -0 2 4 7 10 13 15 14 13 12 11 9 8 8 8 9 10 11 12 13 13 13 12 11 9 8 7 7 7 7 8 9 9 9 8 8 7 6 6 5
8 9 9 9 10 10 10 11 11 10 10 9 8 8 7 6 6 5 4 3 3 2 2 1 0 -0 -1 -1 0 2 4 7 9 12 14 14 14 13 11 9 8 8 8 8 9 11 12 13 13 13 12 10 9 8 7 7 7 7 8 8 9 9 8 8 7 6 6 5 5
8 8 9 9 10 10 10 10 10 9 9 8 7 6 6 5 5 4 3 2 2 2 1 0 -0 -0 -0 0 2 4 7 9 12 13 14 14 13 12 10 8 8 8 8 9 10 12 13 13 13 12 11 9 8 7 7 8 8 8 8 9 9 8 8 7 6 6 5 5 5
8 8 9 9 9 10 10 10 9 8 8 7 6 5 5 5 4 3 2 2 2 1 1 0 -0 -0 1 2 5 7 9 11 13 13 13 13 12 10 9 8 8 8 9 10 11 12 13 13 12 11 9 8 8 8 8 8 8 8 8 9 8 8 7 6 6 5 5 5 5
8 8 9 9 9 9 9 9 8 7 6 5 5 4 4 4 3 2 2 2 1 1 1 1 0 1 2 4 7 9 11 12 13 13 12 12 11 9 8 8 8 9 10 11 12 13 13 12 11 10 9 8 8 8 8 8 8 8 8 8 8 7 7 6 5 5 5 5 5
8 8 8 9 9 9 8 8 7 6 5 4 4 3 3 3 2 2 2 2 1 1 1 1 1 3 4 5 8 10 12 12 12 12 12 12 10 9 8 8 9 10 11 12 12 12 12 11 10 9 8 8 8 8 8 8 8 8 8 8 7 7 6 5 5 5 5 5 5
8 8 8 8 8 8 7 7 6 5 4 3 3 3 2 2 2 2 2 2 2 1 1 1 2 4 6 7 9 12 13 12 12 12 12 10 9 8 8 9 9 10 11 12 12 12 11 10 9 9 8 8 8 8 8 8 8 8 8 7 7 6 5 5 5 5 5 5 6
7 8 8 8 7 7 6 6 4 3 2 2 2 2 2 2 2 2 2 2 1 1 2 2 3 4 6 10 12 13 14 13 12 12 11 9 8 8 8 9 10 10 11 12 12 11 10 10 9 9 8 8 8 7 8 8 8 8 7 7 6 6 5 5 5 5 5 6 6
7 7 7 7 6 6 6 5 3 2 2 2 2 2 2 2 2 2 2 1 1 1 2 3 4 6 9 13 14 14 13 12 12 11 9 8 8 8 9 9 10 10 11 12 11 11 10 9 9 8 8 8 8 8 8 8 8 7 7 6 5 5 5 5 5 5 5 5 6
7 7 6 6 6 5 5 4 3 2 2 2 2 2 2 2 2 2 1 1 1 2 3 4 7 10 13 15 13 12 11 11 11 9 8 7 8 8 9 10 10 11 11 12 11 11 10 9 9 8 8 7 8 8 8 8 7 7 6 5 5 5 5 5 5 5 5 5 5
6 6 6 5 5 5 4 3 2 2 2 2 2 2 2 2 2 1 1 2 3 4 5 8 11 14 15 13 11 10 10 11 9 7 7 7 8 9 9 10 11 11 12 12 11 10 9 9 8 8 7 7 8 8 8 7 6 6 5 5 5 4 4 4 4 4 5 5 5
6 5 5 4 4 4 3 3 2 2 2 2 2 2 2 1 1 1 2 4 5 7 9 12 15 14 13 10 10 10 11 10 8 7 6 7 8 9 10 10 11 12 12 12 11 10 9 8 7 7 7 7 8 7 7 6 6 5 5 5 4 4 4 4 4 4 4 5 5
5 4 4 4 4 3 2 2 2 2 2 1 1 1 1 1 1 3 5 7 9 11 13 14 14 12 10 9 11 11 11 9 7 7 7 8 9 10 10 11 12 12 12 11 10 9 8 8 7 7 7 7 7 7 6 6 5 5 5 4 4 4 3 3 3 4 4 5 6
4 4 4 3 3 2 2 2 2 1 1 1 1 1 1 1 4 7 9 11 12 13 14 14 12 11 10 11 11 10 9 7 7 7 8 9 9 10 11 12 12 12 12 11 9 8 8 7 7 7 7 7 7 6 6 5 5 5 4 4 4 3 3 3 3 4 5 5 6
4 4 4 3 3 3 3 3 2 2 2 1 1 1 2 4 8 11 13 14 14 14 13 12 10 10 11 12 11 9 7 6 7 8 9 9 10 10 11 12 12 12 11 9 8 7 7 7 7 7 7 7 6 6 5 5 5 4 4 4 3 3 3 3 3 4 5 6 6
3 3 3 4 4 4 4 4 4 3 2 1 1 2 5 10 13 15 15 14 14 13 12 12 11 12 12 11 9 7 6 6 7 8 9 10 10 11 12 12 12 11 10 8 7 7 7 7 7 7 7 6 6 5 5 5 4 4 4 3 3 3 3 4 4 5 5 6 6
3 2 2 2 3 3 3 3 3 2 1 -0 2 6 11 16 16 16 14 13 13 13 12 11 12 12 12 10 8 7 7 7 8 9 9 10 11 11 12 12 11 10 9 8 7 7 7 7 7 7 6 6 5 5 4 4 4 4 3 3 3 3 3 4 4 5 6 6 6
13 8 5 2 1 1 1 0 -0 -1 -0 2 7 13 17 18 16 15 14 13 12 12 11 11 12 11 10 7 6 6 7 8 9 9 9 10 11 12 12 11 10 9 8 8 7 7 7 7 6 6 6 5 5 4 4 4 4 3 3 3 3 3 4 4 5 5 6 6 6
24 20 15 9 5 2 1 -1 -1 -0 2 7 14 18 20 18 16 14 13 12 11 11 12 13 11 9 7 6 6 7 8 8 9 9 9 10 11 11 11 10 9 8 8 8 7 7 7 6 6 6 5 5 4 4 4 4 3 3 3 3 3 4 4 5 5 6 6 6 6
24 23 21 17 13 10 7 5 4 5 9 15 20 22 20 17 15 13 12 11 11 11 12 11 9 7 6 6 7 8 8 8 8 9 10 10 11 11 11 10 9 9 8 8 7 7 6 6 6 5 5 4 4 4 4 3 3 3 3 3 4 4 5 5 6 6 6 6 6
16 17 17 16 15 13 11 9 10 14 19 23 23 22 19 16 14 13 12 12 12 11 10 8 6 6 5 6 7 8 8 8 8 9 10 11 12 11 11 10 9 8 8 7 7 6 6 6 5 5 4 4 4 4 3 3 3 3 3 4 4 5 5 5 6 6 6 6 6
12 13 12 13 13 14 14 16 20 23 25 25 23 20 17 14 12 12 12 12 10 9 7 6 6 6 6 7 8 8 8 8 9 10 11 12 12 12 10 9 9 8 7 7 6 6 6 5 5 4 4 4 4 3 3 3 3 4 4 4 5 5 6 6 6 6 6 6 6
19 21 23 23 24 25 26 28 28 27 25 23 19 16 13 11 10 10 10 9 8 6 5 5 5 6 7 8 8 8 9 9 11 12 13 13 12 11 10 8 8 7 7 6 6 6 5 5 4 4 4 4 3 3 3 3 4 4 4 5 5 5 6 6 7 7 7 6 6
27 33 37 39 39 37 36 33 29 26 23 20 16 13 12 11 11 10 9 7 6 5 5 5 6 7 8 9 9 10 10 11 12 13 13 13 11 10 8 7 7 7 6 6 6 5 5 4 4 4 4 3 3 3 3 4 4 4 5 5 5 6 6 6 7 7 7 6 6
28 34 38 40 38 36 33 29 25 23 20 17 15 13 12 11 10 9 7 6 5 6 6 7 8 9 9 10 10 11 12 13 13 13 13 11 10 8 7 7 7 6 6 6 5 5 5 4 4 4 3 3 3 4 4 4 5 5 5 5 6 6 6 7 7 7 7 6 6
24 27 29 29 28 26 24 22 20 19 17 16 15 13 12 10 8 7 6 6 7 7 8 9 9 10 10 11 11 12 13 14 14 13 11 10 9 8 7 6 6 6 6 5 5 5 4 4 4 4 3 3 4 4 4 5 5 5 5 6 6 6 7 7 7 7 7 6 6
18 19 19 19 19 18 17 16 16 15 15 14 13 12 10 8 7 7 7 7 8 9 9 10 10 11 11 11 12 13 13 13 13 11 10 8 8 7 7 6 6 6 6 5 5 5 4 4 4 4 4 4 4 4 5 5 5 5 6 6 6 7 7 7 7 7 6 6 6
15 14 14 14 13 13 13 12 12 12 12 11 10 9 8 7 7 8 8 8 9 10 10 10 11 11 11 11 12 12 12 12 11 10 9 8 7 7 6 6 6 6 6 5 5 5 4 4 4 4 4 4 5 5 5 5 5 6 6 6 7 7 7 7 7 7 6 6 6
12 12 11 11 11 10 10 10 9 9 9 8 8 8 7 7 8 8 8 9 9 10 10 10 10 10 11 11 12 12 12 11 10 9 8 7 7 7 6 6 6 6 5 5 5 5 4 4 4 4 4 4 5 5 5 5 5 6 6 6 7 7 7 7 7 7 6 6 6
Height
5757 5759 5760 5761 5763 5764 5765 5765 5766 5767 5768 5768 5769 5769 5770 5770 5770 5770 5771 5772 5772 5773 5773 5774 5775 5775 5775 5775 5775 5775 5775 5774 5774 5774 5773 5773 5773 5773 5772 5772 5771 5770 5769 5768 5767 5766 5766 5765 5765 5764 5763 5762 5760 5760 5758 5757 5755 5754 5753 5751 5750 5749 5748 5747 5746 5745 5744 5742 5741
5755 5756 5758 5759 5760 5761 5762 5763 5764 5765 5765 5766 5766 5766 5767 5767 5768 5768 5769 5770 5770 5770 5771 5771 5772 5773 5773 5773 5773 5772 5772 5772 5772 5771 5771 5771 5771 5770 5770 5770 5769 5768 5767 5766 5765 5764 5763 5763 5762 5761 5760 5760 5759 5757 5756 5755 5754 5752 5751 5750 5748 5747 5746 5745 5744 5743 5741 5740 5739
5752 5754 5755 5756 5758 5759 5760 5761 5762 5762 5763 5763 5764 5764 5765 5765 5766 5766 5767 5767 5767 5768 5769 5769 5770 5770 5770 5770 5770 5770 5770 5770 5769 5769 5769 5769 5769 5768 5768 5767 5766 5765 5765 5764 5762 5761 5761 5760 5760 5759 5758 5757 5756 5755 5754 5753 5751 5750 5749 5748 5746 5745 5744 5743 5742 5741 5740 5738 5737
5750 5751 5753 5754 5755 5757 5758 5758 5759 5760 5760 5761 5761 5762 5762 5763 5763 5764 5764 5765 5765 5766 5766 5767 5768 5768 5768 5768 5768 5768 5767 5767 5767 5767 5767 5766 5766 5766 5765 5765 5764 5763 5762 5761 5760 5759 5758 5758 5757 5757 5756 5755 5755 5753 5752 5751 5750 5749 5747 5746 5745 5744 5742 5741 5740 5739 5739 5737 5735
5748 5749 5750 5752 5753 5754 5755 5755 5756 5757 5758 5759 5759 5760 5760 5761 5761 5761 5762 5762 5763 5763 5764 5765 5765 5766 5766 5766 5765 5765 5765 5765 5765 5765 5764 5764 5764 5763 5763 5762 5762 5761 5760 5759 5758 5757 5756 5755 5755 5754 5754 5753 5752 5751 5750 5749 5748 5746 5745 5744 5743 5742 5741 5740 5738 5737 5737 5735 5734
5745 5747 5748 5749 5750 5751 5752 5753 5754 5755 5756 5756 5757 5758 5758 5759 5759 5759 5760 5760 5760 5761 5762 5763 5763 5764 5763 5763 5763 5763 5763 5763 5762 5762 5762 5762 5761 5761 5760 5760 5759 5758 5757 5756 5755 5755 5754 5753 5753 5752 5751 5751 5750 5749 5748 5747 5745 5745 5744 5742 5741 5740 5739 5738 5737 5736 5735 5733 5732
5743 5744 5745 5746 5747 5749 5750 5751 5752 5753 5754 5754 5755 5755 5756 5756 5756 5757 5757 5758 5759 5759 5760 5761 5761 5761 5761 5761 5760 5760 5760 5760 5760 5760 5760 5759 5759 5759 5758 5757 5757 5756 5755 5754 5753 5752 5752 5751 5750 5750 5749 5749 5748 5747 5746 5745 5744 5743 5742 5740 5739 5738 5737 5736 5735 5734 5733 5732 5730
5740 5741 5743 5744 5745 5746 5747 5749 5750 5750 5751 5752 5753 5753 5753 5754 5754 5755 5755 5756 5757 5757 5758 5759 5759 5759 5759 5758 5758 5758 5758 5758 5758 5758 5757 5757 5757 5756 5756 5755 5754 5753 5752 5751 5751 5750 5750 5749 5749 5748 5747 5746 5746 5745 5744 5743 5742 5741 5740 5739 5737 5736 5735 5735 5733 5732 5731 5730 5728
5738 5739 5740 5742 5743 5744 5745 5746 5747 5748 5749 5750 5750 5750 5751 5751 5752 5752 5753 5754 5755 5755 5756 5756 5756 5756 5756 5756 5756 5756 5756 5756 5755 5755 5755 5755 5755 5754 5753 5753 5752 5751 5750 5749 5749 5748 5748 5747 5746 5746 5745 5745 5744 5743 5742 5741 5740 5739 5738 5737 5735 5735 5734 5733 5731 5730 5729 5728 5727
5736 5737 5738 5740 5741 5742 5743 5744 5745 5746 5746 5747 5747 5748 5749 5749 5750 5750 5751 5752 5753 5753 5754 5754 5754 5754 5754 5754 5754 5754 5754 5753 5753 5753 5753 5753 5752 5751 5751 5750 5749 5748 5748 5747 5746 5746 5745 5745 5745 5744 5743 5742 5741 5740 5740 5739 5738 5737 5735 5735 5734 5733 5732 5731 5730 5729 5728 5726 5725
5734 5735 5736 5737 5738 5740 5740 5741 5742 5743 5744 5745 5745 5746 5746 5747 5748 5748 5749 5750 5751 5751 5751 5751 5751 5751 5751 5751 5751 5751 5751 5751 5751 5751 5750 5750 5750 5749 5748 5747 5746 5746 5745 5745 5745 5744 5744 5743 5742 5742 5741 5740 5740 5739 5737 5736 5735 5735 5733 5732 5732 5731 5731 5730 5729 5727 5726 5724 5723
5731 5732 5734 5735 5736 5737 5738 5739 5740 5741 5741 5742 5743 5744 5744 5745 5745 5746 5747 5748 5749 5749 5749 5749 5749 5749 5749 5749 5749 5749 5749 5749 5749 5748 5748 5748 5747 5746 5745 5745 5744 5744 5743 5743 5742 5742 5741 5741 5740 5740 5739 5738 5737 5736 5735 5734 5733 5732 5732 5731 5730 5730 5729 5727 5726 5725 5724 5723 5721
5729 5730 5731 5732 5734 5735 5735 5737 5737 5738 5739 5740 5740 5741 5742 5743 5743 5744 5745 5746 5746 5746 5746 5746 5746 5747 5747 5747 5747 5747 5747 5746 5746 5746 5745 5745 5744 5744 5743 5742 5742 5741 5741 5741 5740 5740 5740 5739 5739 5738 5737 5736 5735 5734 5733 5732 5731 5731 5730 5729 5728 5727 5726 5725 5724 5723 5722 5721 5719
5727 5728 5729 5730 5731 5732 5733 5734 5735 5736 5737 5738 5738 5739 5740 5740 5741 5742 5743 5744 5744 5744 5744 5744 5744 5745 5745 5745 5745 5744 5744 5744 5744 5743 5743 5742 5741 5741 5740 5740 5740 5740 5739 5739 5738 5738 5737 5737 5736 5736 5735 5734 5733 5732 5731 5731 5730 5729 5728 5727 5727 5726 5725 5724 5723 5721 5720 5719 5717
5725 5726 5727 5728 5729 5730 5731 5732 5733 5734 5735 5735 5736 5737 5738 5738 5739 5740 5741 5741 5741 5741 5741 5742 5742 5742 5742 5742 5742 5742 5742 5741 5741 5741 5740 5740 5739 5739 5738 5738 5738 5737 5737 5737 5736 5736 5735 5735 5734 5733 5733 5732 5731 5730 5730 5729 5728 5727 5726 5726 5725 5724 5723 5722 5721 5719 5718 5717 5715
5723 5724 5725 5726 5727 5728 5729 5730 5731 5732 5733 5733 5734 5735 5735 5736 5737 5738 5738 5739 5739 5739 5739 5739 5740 5740 5740 5740 5740 5739 5739 5739 5738 5738 5737 5737 5736 5736 5736 5736 5736 5735 5735 5735 5735 5734 5733 5733 5732 5731 5731 5730 5730 5729 5728 5727 5726 5725 5725 5724 5723 5722 5721 5720 5719 5717 5716 5715 5713
5721 5722 5723 5724 5725 5726 5727 5728 5729 5730 5731 5731 5732 5732 5733 5734 5735 5735 5736 5736 5736 5736 5737 5737 5737 5737 5737 5737 5737 5737 5737 5736 5735 5735 5735 5734 5734 5734 5734 5734 5734 5734 5733 5733 5732 5732 5731 5730 5730 5729 5729 5728 5727 5726 5726 5725 5724 5724 5723 5722 5721 5720 5719 5717 5716 5715 5714 5712 5711
5719 5720 5721 5722 5723 5724 5725 5726 5727 5728 5728 5729 5729 5730 5731 5732 5732 5733 5733 5733 5734 5734 5734 5735 5735 5735 5735 5735 5735 5734 5734 5733 5733 5732 5732 5732 5732 5732 5732 5732 5732 5731 5731 5731 5730 5730 5729 5728 5728 5727 5726 5726 5725 5725 5724 5723 5723 5722 5721 5720 5719 5718 5717 5715 5714 5713 5712 5710 5709
5717 5718 5719 5720 5721 5722 5723 5724 5725 5725 5726 5726 5727 5727 5728 5729 5730 5730 5731 5731 5731 5731 5732 5732 5732 5732 5732 5732 5732 5731 5731 5730 5730 5730 5730 5730 5730 5730 5730 5730 5730 5729 5729 5729 5728 5728 5727 5726 5725 5725 5725 5724 5724 5723 5722 5722 5721 5720 5719 5718 5717 5715 5715 5713 5712 5711 5710 5708 5706
5715 5716 5717 5718 5719 5720 5720 5721 5722 5723 5723 5724 5724 5725 5726 5727 5727 5728 5728 5728 5729 5729 5730 5730 5730 5730 5730 5730 5729 5728 5728 5727 5727 5727 5727 5728 5728 5728 5728 5728 5728 5727 5727 5727 5726 5725 5725 5724 5724 5723 5723 5722 5722 5721 5720 5720 5719 5718 5717 5715 5715 5714 5712 5711 5710 5709 5707 5706 5705
5712 5713 5714 5715 5716 5717 5718 5719 5720 5720 5720 5721 5722 5723 5724 5724 5725 5725 5725 5726 5726 5727 5727 5727 5727 5727 5727 5727 5726 5725 5725 5725 5725 5725 5725 5725 5726 5726 5726 5726 5726 5725 5725 5725 5724 5723 5723 5723 5722 5722 5721 5720 5720 5719 5718 5717 5716 5715 5715 5714 5713 5711 5710 5709 5708 5707 5705 5704 5702
5710 5710 5711 5712 5714 5715 5715 5716 5717 5717 5718 5719 5720 5720 5721 5722 5722 5722 5723 5723 5724 5724 5725 5725 5725 5725 5724 5724 5723 5722 5722 5723 5723 5723 5723 5724 5724 5724 5724 5724 5724 5723 5723 5722 5722 5721 5721 5721 5720 5720 5719 5718 5718 5717 5716 5715 5715 5714 5713 5712 5711 5710 5708 5707 5706 5705 5703 5702 5700
5707 5708 5709 5710 5711 5712 5713 5713 5714 5715 5715 5716 5717 5718 5719 5719 5719 5720 5720 5721 5721 5722 5722 5722 5722 5721 5721 5720 5720 5720 5720 5720 5721 5721 5722 5722 5722 5723 5722 5722 5722 5721 5721 5720 5720 5720 5719 5719 5718 5718 5717 5716 5716 5715 5714 5714 5713 5712 5711 5710 5709 5708 5706 5705 5704 5703 5701 5700 5699
5704 5705 5706 5707 5708 5709 5710 5710 5711 5712 5713 5714 5715 5715 5715 5716 5716 5717 5718 5719 5719 5719 5719 5719 5719 5718 5718 5718 5718 5718 5718 5719 5719 5720 5720 5720 5720 5720 5720 5720 5720 5719 5719 5719 5718 5718 5717 5717 5716 5716 5715 5715 5714 5713 5712 5712 5711 5710 5709 5708 5707 5706 5705 5704 5702 5701 5700 5698 5696
5700 5701 5703 5704 5705 5706 5707 5708 5709 5709 5710 5711 5712 5712 5713 5713 5714 5715 5715 5715 5715 5715 5715 5715 5715 5715 5715 5715 5715 5716 5716 5717 5717 5718 5718 5718 5719 5719 5718 5718 5718 5717 5717 5717 5716 5716 5715 5715 5715 5714 5714 5713 5712 5711 5710 5710 5709 5708 5707 5706 5705 5704 5703 5702 5700 5699 5698 5696 5694
5697 5698 5699 5701 5702 5703 5704 5705 5705 5707 5708 5708 5709 5709 5710 5710 5712 5712 5712 5712 5712 5712 5712 5712 5712 5713 5713 5713 5714 5714 5715 5715 5715 5716 5716 5716 5716 5716 5716 5716 5715 5715 5715 5715 5714 5714 5713 5713 5713 5712 5712 5711 5710 5709 5709 5708 5707 5706 5705 5704 5703 5702 5701 5700 5699 5697 5695 5694 5692
5693 5695 5696 5698 5699 5700 5700 5702 5703 5704 5705 5705 5706 5706 5707 5709 5709 5709 5709 5709 5709 5709 5709 5710 5710 5710 5711 5711 5712 5712 5713 5713 5714 5714 5714 5714 5714 5714 5714 5714 5714 5714 5713 5713 5712 5712 5712 5711 5711 5710 5710 5709 5708 5707 5707 5706 5705 5704 5703 5702 5701 5700 5699 5698 5697 5695 5693 5692 5690
5690 5692 5693 5695 5696 5697 5698 5699 5700 5701 5701 5702 5703 5704 5705 5706 5706 5706 5705 5705 5706 5706 5706 5707 5707 5708 5709 5709 5710 5710 5711 5711 5712 5712 5712 5712 5712 5712 5712 5712 5712 5712 5711 5711 5710 5710 5710 5710 5709 5708 5708 5707 5706 5705 5705 5704 5703 5702 5701 5700 5700 5698 5697 5696 5695 5693 5691 5690 5688
5688 5689 5690 5692 5693 5694 5695 5697 5697 5698 5699 5700 5701 5702 5703 5703 5703 5702 5702 5703 5703 5703 5704 5705 5705 5706 5707 5707 5708 5708 5709 5709 5710 5710 5710 5710 5710 5710 5710 5710 5710 5710 5709 5709 5709 5708 5708 5707 5707 5706 5706 5705 5704 5704 5703 5702 5701 5700 5700 5699 5697 5696 5695 5694 5692 5690 5689 5687 5685
5685 5686 5688 5689 5690 5691 5692 5694 5694 5695 5696 5698 5699 5700 5700 5699 5699 5699 5700 5700 5700 5700 5701 5702 5703 5704 5705 5705 5706 5706 5707 5707 5708 5708 5708 5708 5708 5709 5708 5708 5708 5708 5707 5707 5707 5706 5706 5705 5705 5704 5704 5703 5702 5702 5701 5700 5699 5699 5698 5696 5695 5694 5693 5691 5690 5688 5686 5685 5683
5682 5683 5685 5686 5687 5688 5689 5690 5691 5693 5694 5696 5696 5696 5696 5696 5696 5696 5697 5697 5698 5699 5699 5700 5701 5702 5703 5703 5704 5705 5705 5706 5706 5706 5706 5706 5706 5706 5706 5706 5706 5706 5705 5705 5705 5705 5704 5704 5703 5703 5702 5701 5701 5700 5699 5698 5698 5697 5696 5695 5693 5692 5690 5689 5687 5686 5684 5682 5681
5679 5680 5681 5682 5684 5685 5686 5688 5690 5691 5692 5693 5693 5692 5692 5693 5693 5694 5694 5695 5695 5697 5698 5699 5699 5700 5701 5702 5703 5703 5704 5704 5704 5704 5704 5705 5705 5705 5705 5704 5704 5704 5704 5703 5703 5703 5702 5702 5701 5701 5700 5700 5699 5698 5697 5697 5696 5695 5694 5693 5691 5690 5689 5687 5685 5684 5682 5680 5679
5675 5676 5678 5679 5680 5682 5684 5686 5687 5689 5689 5689 5689 5689 5690 5690 5690 5691 5692 5693 5694 5695 5696 5697 5697 5698 5700 5700 5701 5702 5702 5702 5702 5702 5703 5703 5703 5703 5702 5702 5702 5702 5702 5701 5701 5701 5700 5700 5700 5699 5699 5698 5697 5696 5696 5695 5694 5693 5692 5691 5690 5688 5686 5685 5683 5681 5680 5678 5676
5672 5674 5675 5676 5678 5680 5682 5684 5685 5685 5685 5685 5686 5686 5687 5687 5688 5689 5690 5691 5692 5693 5694 5695 5696 5697 5698 5699 5700 5700 5700 5700 5700 5701 5701 5701 5701 5700 5700 5700 5700 5700 5700 5700 5699 5699 5699 5698 5698 5698 5697 5696 5696 5695 5694 5694 5693 5692 5690 5689 5688 5686 5685 5683 5681 5680 5678 5676 5674
5670 5671 5672 5674 5676 5678 5680 5680 5681 5681 5682 5682 5683 5684 5685 5685 5686 5687 5688 5689 5690 5691 5692 5693 5695 5695 5696 5697 5697 5698 5698 5698 5699 5699 5699 5699 5699 5699 5699 5699 5698 5698 5698 5698 5697 5697 5697 5697 5696 5696 5695 5695 5694 5694 5693 5692 5691 5690 5689 5687 5686 5684 5683 5681 5679 5677 5676 5674 5672
5668 5669 5670 5672 5674 5675 5676 5677 5677 5678 5679 5679 5680 5681 5682 5683 5684 5685 5686 5688 5689 5690 5691 5692 5693 5694 5695 5695 5696 5696 5696 5696 5697 5697 5697 5697 5697 5697 5697 5697 5697 5696 5696 5696 5696 5695 5695 5695 5695 5695 5694 5694 5693 5692 5691 5690 5689 5688 5687 5685 5684 5682 5680 5679 5677 5675 5674 5672 5670
5666 5667 5669 5670 5671 5672 5673 5674 5674 5675 5676 5677 5678 5680 5680 5682 5683 5684 5685 5686 5687 5688 5689 5690 5692 5692 5693 5693 5694 5694 5695 5695 5695 5695 5695 5695 5695 5695 5695 5695 5695 5695 5695 5694 5694 5694 5694 5694 5693 5693 5692 5692 5691 5690 5690 5689 5687 5686 5685 5683 5682 5680 5678 5677 5675 5673 5671 5669 5667
5664 5665 5666 5667 5668 5669 5670 5671 5672 5673 5674 5675 5677 5678 5679 5680 5681 5682 5684 5685 5686 5687 5688 5689 5690 5690 5691 5691 5692 5692 5693 5693 5693 5693 5693 5693 5693 5693 5693 5693 5693 5693 5693 5693 5693 5692 5692 5692 5692 5691 5691 5690 5690 5689 5688 5687 5685 5684 5683 5681 5680 5678 5676 5675 5673 5671 5669 5667 5665
5661 5663 5664 5665 5666 5667 5668 5670 5670 5672 5673 5674 5676 5677 5678 5679 5680 5681 5682 5683 5684 5685 5686 5687 5688 5688 5689 5690 5690 5690 5691 5691 5691 5691 5691 5691 5691 5692 5692 5692 5691 5691 5691 5691 5691 5691 5691 5690 5690 5690 5689 5688 5688 5687 5686 5685 5683 5682 5681 5679 5678 5676 5674 5673 5671 5669 5667 5665 5663
5659 5660 5662 5663 5664 5665 5667 5668 5669 5670 5672 5673 5674 5675 5677 5678 5679 5680 5681 5682 5682 5683 5684 5685 5686 5686 5687 5688 5688 5689 5689 5690 5690 5690 5690 5690 5690 5690 5690 5690 5690 5690 5690 5690 5690 5689 5689 5689 5688 5688 5687 5686 5686 5685 5684 5683 5681 5680 5679 5677 5676 5674 5672 5670 5669 5667 5665 5663 5661
5657 5659 5660 5661 5662 5664 5665 5666 5668 5669 5670 5672 5673 5674 5675 5676 5677 5678 5679 5680 5681 5682 5683 5684 5684 5685 5685 5686 5687 5687 5687 5688 5688 5688 5688 5688 5688 5688 5688 5688 5688 5688 5688 5688 5688 5688 5687 5687 5686 5686 5685 5685 5684 5683 5682 5681 5680 5678 5677 5675 5674 5672 5670 5669 5667 5665 5663 5661 5659